Location: Buchberg
(46.9333°N, 15.8500°E)
Time: 19:33:25
(UTC+00:00)

Spot 1 - Pass Details

Date: 14 July 2020
Orbit: 575 x 777 km, 98.7° (Epoch: 06 August)

Event Time Altitude Azimuth Distance (km) Brightness Sun altitude
Exits shadow 00:09:48 35° 161° (SSE) 1,145 5.0 -19.8°
Maximum altitude 00:11:52 86° 76° (ENE) 717 4.3 -19.7°
Drops below altitude 10° 00:16:33 10° 346° (NNW) 2,128 7.6 -19.4°
Sets 00:18:43 0° 347° (NNW) 3,014 8.6 -19.3°
